• In Uzbekistan
  • List of Countries
  • For 7 days
  • Water Temperature
  • Satellite Maps
  • Weather Map
  • Weather Widgets
  • user-avatar
    Login

    Hourly Weather San Miguel de Tucumán

    Today, 27 February, Monday

    Time Temperature Precipitation Wind Pressure Humidity
    00:00 +26°C° 0 mm 1 mps 718 mmHg 74%
    01:00 +26°C° 0 mm 1 mps 718 mmHg 76%
    02:00 +25°C° 0 mm 1 mps 718 mmHg 79%
    03:00 +25°C° 0 mm 1 mps 718 mmHg 80%
    04:00 +24°C° 0 mm 1 mps 718 mmHg 81%
    05:00 +24°C° 0 mm 1 mps 718 mmHg 82%
    06:00 +26°C° 0.1 mm 1 mps 718 mmHg 76%
    07:00 +27°C° 0.1 mm 1 mps 718 mmHg 70%
    08:00 +29°C° 0 mm 1 mps 718 mmHg 62%
    09:00 +31°C° 0.1 mm 1 mps 718 mmHg 57%
    10:00 +32°C° 0.1 mm 1 mps 718 mmHg 53%
    11:00 +35°C° 0.1 mm 2 mps 718 mmHg 48%
    12:00 +35°C° 0.5 mm 2 mps 717 mmHg 46%
    13:00 +36°C° 0.5 mm 2 mps 717 mmHg 45%
    14:00 +37°C° 0.5 mm 2 mps 716 mmHg 43%
    15:00 +36°C° 1.2 mm 2 mps 716 mmHg 45%
    16:00 +36°C° 1.2 mm 2 mps 716 mmHg 47%
    17:00 +35°C° 1.2 mm 2 mps 716 mmHg 49%
    18:00 +32°C° 1.3 mm 2 mps 716 mmHg 56%
    19:00 +31°C° 1.3 mm 1 mps 716 mmHg 64%
    20:00 +29°C° 1.3 mm 1 mps 717 mmHg 72%
    21:00 +28°C° 1.5 mm 1 mps 717 mmHg 73%
    22:00 +28°C° 1.5 mm 1 mps 718 mmHg 75%
    23:00 +27°C° 1.5 mm 1 mps 718 mmHg 77%

    Tomorrow, 28 February, Tuesday

    Time Temperature Precipitation Wind Pressure Humidity
    00:00 +27°C° 1 mm 1 mps 718 mmHg 78%
    01:00 +26°C° 1 mm 1 mps 718 mmHg 79%
    02:00 +26°C° 1 mm 1 mps 718 mmHg 80%
    03:00 +26°C° 0.8 mm 1 mps 718 mmHg 80%
    04:00 +25°C° 0.8 mm 1 mps 718 mmHg 81%
    05:00 +25°C° 0.8 mm 1 mps 718 mmHg 81%
    06:00 +26°C° 0.3 mm 1 mps 718 mmHg 75%
    07:00 +28°C° 0.3 mm 1 mps 718 mmHg 70%
    08:00 +29°C° 0.3 mm 1 mps 719 mmHg 64%
    09:00 +31°C° 0.1 mm 1 mps 719 mmHg 56%
    10:00 +32°C° 0.1 mm 1 mps 719 mmHg 49%
    11:00 +34°C° 0.1 mm 1 mps 719 mmHg 41%
    12:00 +36°C° 0.3 mm 2 mps 718 mmHg 40%
    13:00 +36°C° 0.3 mm 2 mps 717 mmHg 39%
    14:00 +37°C° 0.3 mm 2 mps 716 mmHg 38%
    15:00 +37°C° 0.3 mm 2 mps 715 mmHg 40%
    16:00 +36°C° 0.3 mm 2 mps 715 mmHg 41%
    17:00 +36°C° 0.3 mm 2 mps 714 mmHg 42%
    18:00 +34°C° 0.2 mm 2 mps 714 mmHg 51%
    19:00 +30°C° 0.2 mm 2 mps 715 mmHg 59%
    20:00 +28°C° 0.2 mm 2 mps 715 mmHg 67%
    21:00 +27°C° 0.1 mm 2 mps 715 mmHg 69%
    22:00 +27°C° 0.1 mm 2 mps 715 mmHg 70%
    23:00 +26°C° 0.1 mm 2 mps 716 mmHg 71%

    Day after tomorrow, 1 March, Wednesday

    Time Temperature Precipitation Wind Pressure Humidity
    00:00 +26°C° 0 mm 2 mps 715 mmHg 71%
    01:00 +26°C° 0 mm 2 mps 715 mmHg 70%
    02:00 +25°C° 0 mm 1 mps 714 mmHg 70%
    03:00 +25°C° 0 mm 1 mps 714 mmHg 71%
    04:00 +24°C° 0 mm 1 mps 714 mmHg 73%
    05:00 +24°C° 0 mm 1 mps 714 mmHg 74%
    06:00 +26°C° 0 mm 1 mps 715 mmHg 68%
    07:00 +28°C° 0 mm 1 mps 715 mmHg 62%
    08:00 +30°C° 0 mm 1 mps 716 mmHg 55%
    09:00 +32°C° 0 mm 1 mps 716 mmHg 50%
    10:00 +33°C° 0 mm 1 mps 716 mmHg 44%
    11:00 +35°C° 0 mm 1 mps 716 mmHg 38%
    12:00 +37°C° 0 mm 2 mps 715 mmHg 36%
    13:00 +37°C° 0 mm 2 mps 714 mmHg 34%
    14:00 +38°C° 0 mm 2 mps 713 mmHg 32%
    15:00 +38°C° 0 mm 3 mps 713 mmHg 33%
    16:00 +38°C° 0 mm 3 mps 713 mmHg 34%
    17:00 +38°C° 0 mm 3 mps 712 mmHg 35%
    18:00 +35°C° 0.1 mm 3 mps 712 mmHg 43%
    19:00 +33°C° 0.1 mm 3 mps 713 mmHg 51%
    20:00 +29°C° 0.1 mm 3 mps 713 mmHg 58%
    21:00 +29°C° 0 mm 3 mps 713 mmHg 60%
    22:00 +28°C° 0 mm 3 mps 713 mmHg 63%
    23:00 +28°C° 0 mm 3 mps 714 mmHg 65%

    2 March, Thursday

    Time Temperature Precipitation Wind Pressure Humidity
    00:00 +27°C° 0 mm 3 mps 713 mmHg 66%
    01:00 +27°C° 0 mm 3 mps 713 mmHg 67%
    02:00 +27°C° 0 mm 3 mps 712 mmHg 68%
    03:00 +26°C° 0 mm 3 mps 712 mmHg 69%
    04:00 +26°C° 0 mm 2 mps 712 mmHg 69%
    05:00 +26°C° 0 mm 2 mps 711 mmHg 69%
    06:00 +27°C° 0 mm 2 mps 712 mmHg 63%
    07:00 +29°C° 0 mm 2 mps 712 mmHg 57%
    08:00 +31°C° 0 mm 2 mps 713 mmHg 51%
    09:00 +34°C° 0 mm 3 mps 713 mmHg 46%
    10:00 +36°C° 0 mm 3 mps 713 mmHg 40%
    11:00 +38°C° 0 mm 4 mps 713 mmHg 34%
    12:00 +40°C° 0 mm 4 mps 712 mmHg 32%
    13:00 +41°C° 0 mm 4 mps 712 mmHg 31%
    14:00 +42°C° 0 mm 4 mps 711 mmHg 29%
    15:00 +41°C° 0 mm 4 mps 711 mmHg 32%
    16:00 +40°C° 0 mm 4 mps 711 mmHg 34%
    17:00 +40°C° 0 mm 4 mps 710 mmHg 36%
    18:00 +36°C° 0.3 mm 4 mps 711 mmHg 44%
    19:00 +34°C° 0.3 mm 3 mps 712 mmHg 52%
    20:00 +31°C° 0.3 mm 3 mps 712 mmHg 61%
    21:00 +30°C° 1.1 mm 3 mps 713 mmHg 62%
    22:00 +30°C° 1.1 mm 2 mps 713 mmHg 64%
    23:00 +29°C° 1.1 mm 2 mps 714 mmHg 66%

    3 March, Friday

    Time Temperature Precipitation Wind Pressure Humidity
    00:00 +28°C° 1.3 mm 2 mps 714 mmHg 69%
    01:00 +28°C° 1.3 mm 3 mps 714 mmHg 71%
    02:00 +27°C° 1.3 mm 3 mps 714 mmHg 74%
    03:00 +26°C° 2.3 mm 4 mps 714 mmHg 80%
    04:00 +26°C° 2.3 mm 4 mps 715 mmHg 86%
    05:00 +25°C° 2.3 mm 4 mps 715 mmHg 92%
    06:00 +25°C° 2.2 mm 4 mps 716 mmHg 92%
    07:00 +25°C° 2.2 mm 4 mps 717 mmHg 93%
    08:00 +23°C° 2.2 mm 4 mps 718 mmHg 93%
    09:00 +24°C° 3.6 mm 3 mps 718 mmHg 94%
    10:00 +24°C° 3.6 mm 3 mps 718 mmHg 94%
    11:00 +24°C° 3.6 mm 3 mps 718 mmHg 94%
    12:00 +24°C° 3.1 mm 3 mps 718 mmHg 94%
    13:00 +24°C° 3.1 mm 3 mps 718 mmHg 95%
    14:00 +23°C° 3.1 mm 4 mps 717 mmHg 95%
    15:00 +22°C° 0.4 mm 4 mps 717 mmHg 95%
    16:00 +22°C° 0.4 mm 3 mps 717 mmHg 94%
    17:00 +22°C° 0.4 mm 3 mps 717 mmHg 94%
    18:00 +22°C° 0.2 mm 3 mps 718 mmHg 94%
    19:00 +22°C° 0.2 mm 3 mps 718 mmHg 95%
    20:00 +21°C° 0.2 mm 3 mps 719 mmHg 95%
    21:00 +21°C° 0.1 mm 3 mps 719 mmHg 95%
    22:00 +21°C° 0.1 mm 3 mps 720 mmHg 94%
    23:00 +21°C° 0.1 mm 3 mps 720 mmHg 94%

    4 March, Saturday

    Time Temperature Precipitation Wind Pressure Humidity
    00:00 +20°C° 0 mm 2 mps 719 mmHg 92%
    01:00 +20°C° 0 mm 2 mps 719 mmHg 91%
    02:00 +20°C° 0 mm 2 mps 718 mmHg 89%
    03:00 +19°C° 0 mm 2 mps 718 mmHg 88%
    04:00 +18°C° 0 mm 2 mps 718 mmHg 88%
    05:00 +18°C° 0 mm 2 mps 718 mmHg 87%
    06:00 +19°C° 0 mm 2 mps 718 mmHg 83%
    07:00 +19°C° 0 mm 2 mps 719 mmHg 79%
    08:00 +20°C° 0 mm 3 mps 719 mmHg 75%
    09:00 +22°C° 0 mm 3 mps 719 mmHg 64%
    10:00 +25°C° 0 mm 3 mps 719 mmHg 53%
    11:00 +27°C° 0 mm 4 mps 719 mmHg 42%
    12:00 +28°C° 0 mm 3 mps 718 mmHg 40%
    13:00 +29°C° 0 mm 3 mps 717 mmHg 38%
    14:00 +30°C° 0 mm 3 mps 717 mmHg 36%
    15:00 +30°C° 0 mm 3 mps 716 mmHg 36%
    16:00 +30°C° 0 mm 3 mps 716 mmHg 37%
    17:00 +30°C° 0 mm 2 mps 716 mmHg 38%
    18:00 +27°C° 0 mm 2 mps 716 mmHg 46%
    19:00 +24°C° 0 mm 1 mps 716 mmHg 54%
    20:00 +21°C° 0 mm 1 mps 716 mmHg 63%
    21:00 +21°C° 0 mm 1 mps 717 mmHg 63%
    22:00 +21°C° 0 mm 1 mps 717 mmHg 62%
    23:00 +21°C° 0 mm 1 mps 717 mmHg 62%
    Show more